Location: Bégole
(43.1574°N, 0.3291°E)
Time: 11:47:56
(UTC+00:00)

ADEOS - Pass Details

Date: 28 January 2023
Orbit: 792 x 793 km, 98.9° (Epoch: 19 March)

Event Time Altitude Azimuth Distance (km) Brightness Sun altitude
Rises 17:53:34 0° 173° (S) 3,279 6.9 -9.1°
Reaches altitude 10° 17:55:54 10° 176° (S) 2,354 6.2 -9.5°
Maximum altitude 18:01:03 63° 258° (WSW) 882 4.1 -10.4°
Drops below altitude 10° 18:06:15 10° 340° (NNW) 2,370 6.1 -11.3°
Sets 18:08:37 0° 343° (NNW) 3,303 6.8 -11.7°
